Location: Unspecified
(0.0000°N, 0.0000°E)
Time: 07:02:00
(UTC+00:00)

Courier 1B - Pass Details

Date: 30 September 2023
Orbit: 962 x 1208 km, 28.3° (Epoch: 06 December)

Event Time Altitude Azimuth Distance (km) Brightness Sun altitude
Rises 22:32:12 0° 257° (WSW) 3,888 - -70.3°
Reaches altitude 10° 22:36:44 10° 232° (SW) 2,872 - -71.5°
Maximum altitude 22:39:57 13° 204° (SSW) 2,578 - -72.3°
Drops below altitude 10° 22:43:06 10° 176° (S) 2,793 - -73.0°
Sets 22:47:25 0° 150° (SSE) 3,698 - -74.1°
